Flag for Brazil Weather past 2 weeks in São Paulo, São Paulo, Brazil

Now
57 °F

Fog.


Feels Like: 57 °F
Forecast: 55 / 79 °F
Wind: 3 mph from Southeast

Location: Sao Paulo Airport

Current Time: Jul 30, 2015 at 10:48:20 PM

Latest Report: Jul 30, 2015 at 10:00 PM


Visibility: 1 mi

Pressure: 30.24 "Hg (27.61 "Hg at 765m altitude)

Humidity: 88%

Dew point: 54 °F

Location of São PauloLocation

Historic Weather in São Paulo — Graph

°F

São Paulo temperature yesterday

Maximum temperature yesterday: 73 °F (at 2:00 PM)
Minimum temperature yesterday: 52 °F (at 6:00 AM)
Average temperature yesterday: 62 °F

Past Weeks' High & Low Weather Summary

 TemperatureHumidityPressure
High79 °F (Jul 16, 1:00 PM)100% (Jul 28, 8:00 AM)30.33 "Hg (Jul 28, 8:00 AM)
Low36 °F (Jul 28, 8:00 AM)27% (Jul 28, 3:00 PM)30.04 "Hg (Jul 21, 1:00 AM)
Average63 °F71%30.21 "Hg
* Reported Jul 15 10:00 PM — Jul 30 10:00 PM, São Paulo, Weather by CustomWeather, © 2015

Note: Actual official high and low records may vary slightly from our data, if they occured in-between our weather recording intervals... More about our weather records

Advertising

São Paulo weather history for previous 24 hours

 ConditionsComfort  
Time TempWeatherWind HumidityBarometerVisibility
10:00 PM
Thu, Jul 30
57 °FFog.3 mph88%30.24 "Hg1 mi
9:00 PM57 °FFog.5 mph88%30.24 "Hg1 mi
8:00 PM59 °FFog.6 mph82%30.24 "Hg3 mi
7:00 PM59 °FFog.8 mph88%30.24 "Hg2 mi
6:00 PM61 °FFog.10 mph83%30.21 "Hg2 mi
5:00 PM68 °FClear.12 mph69%30.18 "Hg5 mi
4:00 PM79 °FPassing clouds.5 mph32%30.18 "HgN/A
3:00 PM77 °FSunny.5 mph34%30.18 "Hg10 mi
2:00 PM75 °FSunny.5 mph39%30.21 "Hg10 mi
1:00 PM73 °FClear.5 mph47%30.24 "Hg6 mi
12:00 PM70 °FClear.3 mph57%30.27 "Hg5 mi
11:00 AM64 °FHaze.5 mph68%30.30 "Hg3 mi
10:00 AM59 °FFog.5 mph88%30.30 "Hg2 mi
9:00 AM55 °FFog.6 mph94%30.30 "Hg1 mi
8:00 AM55 °FFog.5 mph88%N/A0 mi
7:00 AM55 °FFog.5 mph88%N/A1 mi
6:00 AM55 °FFog.3 mph88%30.24 "Hg2 mi
5:00 AM55 °FFog.3 mph82%30.24 "Hg3 mi
4:00 AM54 °FCool.No wind82%30.24 "Hg4 mi
3:00 AM54 °FCool.2 mph77%30.24 "Hg6 mi
2:00 AM55 °FClear.1 mph72%30.27 "Hg10 mi
1:00 AM57 °FClear.No wind67%30.27 "Hg10 mi
12:00 AM57 °FClear.2 mph77%30.30 "Hg10 mi
11:00 PM
Wed, Jul 29
59 °FClear.2 mph68%30.30 "Hg10 mi
10:00 PM59 °FClear.3 mph77%30.30 "Hg6 mi
Weather by CustomWeather, © 2015

See weather overviewHow to use our weather pages